Tracking 34717 objects as of 14-Jul-2026
HD Live streaming from Space Station
objects crossing your sky now

STARLINK-31259

Track STARLINK-31259 now!
10-day predictions
STARLINK-31259 is classified as:


NORAD ID: 59076
Int'l Code: 2024-041C
Perigee: 489.0 km
Apogee: 491.3 km
Inclination: 43.0 °
Period: 94.3 minutes
Semi major axis: 6861 km
RCS: Unknown
Launch date: February 29, 2024
Source: United States (US)
Launch site: AIR FORCE EASTERN TEST RANGE (AFETR)
Your satellite tracking list
Your tracking list is empty




NASA's NSSDC Master Catalog

Two Line Element Set (TLE):
1 59076U 24041C   26194.34866285  .00000102  00000-0  13226-4 0  9993
2 59076  43.0049 320.6917 0001690 265.5119  94.5540 15.27583157132447
Source of the keplerian elements: AFSPC